• In Hungary
  • List of Countries
  • For 7 days
  • Water Temperature
  • Satellite Maps
  • Weather Map
  • News
  • Weather Widgets
  • user-avatar
    Login

    Hourly Weather Uelzen

    Today, 24 January, Wednesday

    Time Temperature Precipitation Wind Pressure Humidity
    00:00 +6°C° 0.2 mm 5 mps 758 mmHg 89%
    01:00 +6°C° 0.2 mm 5 mps 757 mmHg 89%
    02:00 +7°C° 0.1 mm 5 mps 757 mmHg 90%
    03:00 +7°C° 0.1 mm 5 mps 757 mmHg 90%
    04:00 +8°C° 0.1 mm 5 mps 757 mmHg 91%
    05:00 +8°C° 0.1 mm 5 mps 757 mmHg 91%
    06:00 +8°C° 0.1 mm 5 mps 757 mmHg 91%
    07:00 +8°C° 0.1 mm 5 mps 757 mmHg 92%
    08:00 +9°C° 0 mm 5 mps 757 mmHg 91%
    09:00 +9°C° 0 mm 5 mps 757 mmHg 90%
    10:00 +9°C° 0 mm 5 mps 757 mmHg 89%
    11:00 +10°C° 0 mm 5 mps 756 mmHg 86%
    12:00 +10°C° 0 mm 6 mps 756 mmHg 82%
    13:00 +11°C° 0 mm 6 mps 755 mmHg 79%
    14:00 +11°C° 0 mm 6 mps 755 mmHg 79%
    15:00 +11°C° 0 mm 6 mps 754 mmHg 78%
    16:00 +11°C° 0 mm 6 mps 754 mmHg 78%
    17:00 +11°C° 0 mm 7 mps 753 mmHg 78%
    18:00 +11°C° 0 mm 7 mps 753 mmHg 79%
    19:00 +10°C° 0 mm 7 mps 753 mmHg 79%
    20:00 +10°C° 0 mm 7 mps 753 mmHg 78%
    21:00 +10°C° 0 mm 7 mps 753 mmHg 78%
    22:00 +10°C° 0 mm 7 mps 753 mmHg 78%
    23:00 +10°C° 0.2 mm 7 mps 753 mmHg 79%

    Tomorrow, 25 January, Thursday

    Time Temperature Precipitation Wind Pressure Humidity
    00:00 +10°C° 0.2 mm 6 mps 753 mmHg 80%
    01:00 +9°C° 0.2 mm 6 mps 753 mmHg 82%
    02:00 +9°C° 0.3 mm 5 mps 753 mmHg 83%
    03:00 +10°C° 0.3 mm 4 mps 753 mmHg 85%
    04:00 +8°C° 0.3 mm 4 mps 753 mmHg 87%
    05:00 +8°C° 0.2 mm 4 mps 753 mmHg 87%
    06:00 +8°C° 0.2 mm 3 mps 753 mmHg 87%
    07:00 +8°C° 0.2 mm 3 mps 753 mmHg 87%
    08:00 +8°C° 0.1 mm 3 mps 753 mmHg 87%
    09:00 +8°C° 0.1 mm 3 mps 754 mmHg 86%
    10:00 +8°C° 0.1 mm 3 mps 754 mmHg 86%
    11:00 +8°C° 0 mm 3 mps 754 mmHg 84%
    12:00 +8°C° 0 mm 3 mps 753 mmHg 82%
    13:00 +9°C° 0 mm 3 mps 753 mmHg 80%
    14:00 +8°C° 0 mm 3 mps 753 mmHg 81%
    15:00 +8°C° 0 mm 2 mps 753 mmHg 83%
    16:00 +8°C° 0 mm 2 mps 753 mmHg 84%
    17:00 +7°C° 0 mm 2 mps 753 mmHg 87%
    18:00 +7°C° 0 mm 2 mps 754 mmHg 89%
    19:00 +7°C° 0 mm 2 mps 754 mmHg 91%
    20:00 +6°C° 0.1 mm 2 mps 754 mmHg 92%
    21:00 +7°C° 0.1 mm 1 mps 754 mmHg 93%
    22:00 +7°C° 0.1 mm 1 mps 754 mmHg 94%
    23:00 +7°C° 0.2 mm 1 mps 754 mmHg 95%

    Day after tomorrow, 26 January, Friday

    Time Temperature Precipitation Wind Pressure Humidity
    00:00 +7°C° 0.2 mm 1 mps 754 mmHg 95%
    01:00 +7°C° 0.2 mm 1 mps 754 mmHg 95%
    02:00 +6°C° 0.1 mm 1 mps 754 mmHg 95%
    03:00 +6°C° 0.1 mm 1 mps 754 mmHg 96%
    04:00 +5°C° 0.1 mm 0 mps 754 mmHg 96%
    05:00 +6°C° 0 mm 1 mps 754 mmHg 96%
    06:00 +6°C° 0 mm 1 mps 754 mmHg 96%
    07:00 +6°C° 0 mm 1 mps 755 mmHg 95%
    08:00 +6°C° 0 mm 1 mps 755 mmHg 95%
    09:00 +6°C° 0 mm 1 mps 755 mmHg 94%
    10:00 +6°C° 0 mm 1 mps 756 mmHg 93%
    11:00 +6°C° 0 mm 1 mps 756 mmHg 91%
    12:00 +6°C° 0 mm 2 mps 757 mmHg 88%
    13:00 +6°C° 0 mm 2 mps 757 mmHg 86%
    14:00 +7°C° 0 mm 1 mps 757 mmHg 87%
    15:00 +7°C° 0 mm 1 mps 758 mmHg 89%
    16:00 +7°C° 0 mm 1 mps 758 mmHg 90%
    17:00 +6°C° 0 mm 1 mps 758 mmHg 91%
    18:00 +6°C° 0 mm 1 mps 759 mmHg 92%
    19:00 +5°C° 0 mm 1 mps 759 mmHg 94%
    20:00 +5°C° 0 mm 1 mps 760 mmHg 94%
    21:00 +5°C° 0 mm 1 mps 760 mmHg 94%
    22:00 +4°C° 0 mm 1 mps 761 mmHg 94%
    23:00 +4°C° 0 mm 1 mps 761 mmHg 94%

    27 January, Saturday

    Time Temperature Precipitation Wind Pressure Humidity
    00:00 +4°C° 0 mm 1 mps 762 mmHg 95%
    01:00 +4°C° 0 mm 1 mps 762 mmHg 95%
    02:00 +3°C° 0 mm 1 mps 762 mmHg 94%
    03:00 +3°C° 0 mm 1 mps 763 mmHg 94%
    04:00 +3°C° 0 mm 1 mps 763 mmHg 93%
    05:00 +3°C° 0 mm 1 mps 764 mmHg 93%
    06:00 +3°C° 0 mm 1 mps 764 mmHg 92%
    07:00 +3°C° 0 mm 1 mps 765 mmHg 91%
    08:00 +3°C° 0 mm 1 mps 765 mmHg 89%
    09:00 +4°C° 0 mm 1 mps 766 mmHg 88%
    10:00 +3°C° 0 mm 2 mps 767 mmHg 86%
    11:00 +4°C° 0 mm 2 mps 767 mmHg 82%
    12:00 +5°C° 0 mm 2 mps 767 mmHg 79%
    13:00 +6°C° 0 mm 2 mps 767 mmHg 76%
    14:00 +6°C° 0 mm 2 mps 768 mmHg 78%
    15:00 +6°C° 0 mm 2 mps 768 mmHg 80%
    16:00 +6°C° 0 mm 1 mps 768 mmHg 83%
    17:00 +4°C° 0 mm 2 mps 768 mmHg 86%
    18:00 +4°C° 0 mm 2 mps 769 mmHg 88%
    19:00 +3°C° 0 mm 2 mps 769 mmHg 91%
    20:00 +3°C° 0 mm 2 mps 769 mmHg 91%
    21:00 +2°C° 0 mm 2 mps 770 mmHg 91%
    22:00 +1°C° 0 mm 3 mps 770 mmHg 91%
    23:00 +1°C° 0 mm 3 mps 770 mmHg 91%

    28 January, Sunday

    Time Temperature Precipitation Wind Pressure Humidity
    00:00 +1°C° 0 mm 3 mps 770 mmHg 91%
    01:00 +1°C° 0 mm 3 mps 770 mmHg 90%
    02:00 +1°C° 0 mm 3 mps 769 mmHg 89%
    03:00 0°C° 0 mm 4 mps 769 mmHg 88%
    04:00 0°C° 0 mm 4 mps 769 mmHg 87%
    05:00 +1°C° 0 mm 4 mps 769 mmHg 84%
    06:00 +1°C° 0 mm 5 mps 769 mmHg 82%
    07:00 +1°C° 0 mm 5 mps 769 mmHg 79%
    08:00 +2°C° 0 mm 5 mps 769 mmHg 78%
    09:00 +2°C° 0 mm 5 mps 769 mmHg 78%
    10:00 +2°C° 0 mm 5 mps 769 mmHg 77%
    11:00 +3°C° 0 mm 5 mps 769 mmHg 77%
    12:00 +5°C° 0 mm 5 mps 769 mmHg 77%
    13:00 +4°C° 0 mm 6 mps 769 mmHg 76%
    14:00 +5°C° 0 mm 6 mps 768 mmHg 79%
    15:00 +6°C° 0 mm 5 mps 768 mmHg 81%
    16:00 +6°C° 0 mm 5 mps 768 mmHg 83%
    17:00 +6°C° 0 mm 5 mps 768 mmHg 85%
    18:00 +6°C° 0 mm 5 mps 768 mmHg 86%
    19:00 +6°C° 0 mm 5 mps 768 mmHg 88%
    20:00 +7°C° 0 mm 5 mps 768 mmHg 89%
    21:00 +7°C° 0 mm 6 mps 768 mmHg 89%
    22:00 +7°C° 0 mm 6 mps 768 mmHg 90%
    23:00 +7°C° 0 mm 5 mps 768 mmHg 90%

    29 January, Monday

    Time Temperature Precipitation Wind Pressure Humidity
    00:00 +7°C° 0 mm 5 mps 768 mmHg 90%
    01:00 +7°C° 0 mm 5 mps 768 mmHg 90%
    02:00 +7°C° 0 mm 5 mps 767 mmHg 90%
    03:00 +8°C° 0 mm 5 mps 767 mmHg 90%
    04:00 +8°C° 0 mm 5 mps 767 mmHg 89%
    05:00 +8°C° 0 mm 6 mps 767 mmHg 88%
    06:00 +8°C° 0 mm 6 mps 766 mmHg 87%
    07:00 +8°C° 0 mm 6 mps 766 mmHg 86%
    08:00 +8°C° 0 mm 6 mps 766 mmHg 86%
    09:00 +8°C° 0 mm 7 mps 766 mmHg 85%
    10:00 +8°C° 0 mm 7 mps 766 mmHg 84%
    11:00 +8°C° 0 mm 7 mps 766 mmHg 84%
    12:00 +8°C° 0 mm 7 mps 765 mmHg 83%
    13:00 +8°C° 0 mm 7 mps 765 mmHg 82%
    14:00 +8°C° 0.1 mm 7 mps 765 mmHg 83%
    15:00 +8°C° 0.1 mm 7 mps 765 mmHg 83%
    16:00 +8°C° 0.1 mm 7 mps 765 mmHg 83%
    17:00 +8°C° 0.1 mm 6 mps 765 mmHg 84%
    18:00 +8°C° 0.1 mm 6 mps 765 mmHg 85%
    19:00 +8°C° 0.1 mm 6 mps 765 mmHg 86%
    20:00 +8°C° 0.1 mm 5 mps 765 mmHg 87%
    21:00 +8°C° 0.1 mm 5 mps 765 mmHg 87%
    22:00 +8°C° 0.1 mm 5 mps 765 mmHg 88%
    23:00 +8°C° 0.3 mm 5 mps 765 mmHg 89%
    Show more